Vorticity
nan nan nan nan nan nan nan nan nan nan nan nan nan nan nan nan nan nan nan nan nan nan nan nan nan nan nan nan nan nan nan nan nan nan nan nan nan nan nan nan nan nan nan
nan 6 9 6 7 6 6 5 5 5 5 5 6 6 6 5 5 5 5 5 5 5 6 6 7 6 5 5 5 5 5 5 6 6 1 1 4 3 3 2 11 9 nan
nan 9 6 4 6 6 5 5 5 5 4 4 6 6 6 6 6 6 6 5 5 6 6 5 7 7 5 5 5 4 4 5 5 4 2 2 7 6 5 6 6 5 nan
nan 9 4 5 6 6 5 5 6 5 5 5 5 7 7 7 6 5 5 5 5 6 6 6 5 6 6 5 4 3 3 4 4 1 5 7 5 8 5 5 6 6 nan
nan 8 5 7 7 6 6 5 6 6 6 5 6 5 6 7 7 6 5 6 6 5 5 5 5 4 4 4 4 3 4 5 3 7 4 7 6 10 5 6 7 2 nan
nan 5 3 5 6 5 6 7 6 5 6 7 6 5 6 6 6 5 6 7 6 5 5 5 5 3 4 3 3 3 5 7 5 10 8 5 8 6 6 5 5 4 nan
nan 1 3 4 6 6 5 6 7 6 6 5 5 7 6 6 4 6 6 5 5 6 6 6 4 4 3 3 3 3 4 4 7 11 7 3 15 6 4 6 5 3 nan
nan 6 1 4 5 6 5 4 5 7 7 7 6 5 6 6 5 5 5 5 4 4 4 4 4 4 3 3 4 4 4 7 7 6 6 7 10 6 4 5 3 5 nan
nan 8 9 3 3 3 5 5 5 5 6 7 5 6 5 5 5 5 3 5 4 4 4 4 4 3 3 4 4 4 5 4 8 5 5 15 8 4 4 4 5 5 nan
nan 2 3 7 4 6 4 3 4 5 5 4 5 5 3 5 5 5 7 3 4 5 5 5 6 5 5 3 4 5 6 10 9 5 8 15 8 6 5 4 5 5 nan
nan 5 6 5 4 6 6 6 4 4 5 7 4 6 3 2 9 2 3 5 5 6 5 6 7 7 8 12 7 5 7 10 9 7 9 11 6 6 6 6 6 6 nan
nan 3 6 5 5 4 6 4 4 5 4 4 4 5 9 4 5 8 7 7 8 10 9 7 7 9 7 9 17 8 1 4 9 7 12 7 5 6 7 8 7 6 nan
nan 4 5 6 6 4 6 5 6 5 6 4 4 3 5 5 8 8 8 7 9 10 11 13 8 4 7 7 7 6 8 8 8 8 10 7 5 7 7 9 8 8 nan
nan 5 5 5 5 5 4 7 5 6 6 5 5 6 5 6 5 5 6 9 9 3 8 9 7 8 6 7 7 7 7 9 6 8 11 9 4 6 7 10 11 8 nan
nan 6 6 5 4 5 4 6 5 7 6 6 5 5 5 6 6 5 5 6 7 7 7 6 8 7 8 8 6 7 8 8 8 7 12 8 5 6 6 7 11 11 nan
nan 6 6 5 5 5 5 5 6 6 6 6 6 7 6 5 5 8 8 8 7 6 4 5 6 8 8 8 8 8 9 10 8 7 8 10 12 6 6 7 9 11 nan
nan 8 7 7 6 5 5 5 5 7 6 7 8 7 6 6 5 8 9 7 9 8 8 5 5 8 7 7 7 8 10 9 9 8 8 9 15 13 7 6 7 10 nan
nan 8 6 8 8 6 5 5 6 7 8 8 7 7 8 7 7 7 7 7 9 8 8 7 7 7 7 8 9 8 9 8 8 11 9 7 8 12 17 12 7 7 nan
nan 8 7 7 7 7 6 6 8 7 7 6 7 8 9 7 7 6 6 8 6 8 7 9 7 7 7 8 8 8 9 9 10 10 11 10 9 9 7 15 13 8 nan
nan 7 7 8 8 7 7 8 8 8 7 7 7 8 6 6 6 7 7 7 7 7 6 7 8 7 9 9 7 10 9 10 13 11 9 9 8 9 8 6 10 20 nan
nan 7 8 7 7 7 8 8 7 7 7 7 8 8 5 6 6 7 8 7 9 5 6 8 8 8 9 10 8 9 15 10 6 7 9 9 12 9 8 10 8 6 nan
nan 7 7 7 6 5 4 7 7 7 7 8 8 7 6 7 8 8 7 7 7 9 7 7 10 9 8 7 11 9 12 13 2 6 11 9 6 9 8 6 8 8 nan
nan 7 7 8 6 6 5 6 6 6 8 10 9 9 10 9 8 8 8 7 8 9 8 9 8 8 10 7 9 11 7 5 10 10 6 7 4 7 8 7 8 8 nan
nan 7 7 8 7 7 7 4 6 5 8 7 8 9 10 12 9 8 9 9 8 7 10 8 6 9 8 8 9 9 6 4 8 7 5 6 8 7 9 8 9 9 nan
nan 7 8 8 7 8 7 5 6 5 6 7 9 9 8 8 10 10 10 9 8 9 6 6 7 8 8 7 8 7 9 9 8 6 4 8 8 8 9 8 8 10 nan
nan nan nan nan nan nan nan nan nan nan nan nan nan nan nan nan nan nan nan nan nan nan nan nan nan nan nan nan nan nan nan nan nan nan nan nan nan nan nan nan nan nan nan
CAPE
50 200 843 2180 2787 3016 2968 2872 2650 2417 2427 2343 2505 2096 1851 1655 1880 2236 2221 2193 2130 1833 1776 2100 1960 1952 2172 2024 1831 1837 1867 1953 2032 1760 1494 1540 1422 1723 1676 909 993 1002 1701
132 228 1009 2015 2282 2631 2573 2711 2425 2562 2356 2152 2268 2262 2185 2161 2200 2195 2490 2222 1624 1293 1244 1886 2325 2063 1847 1696 1943 1788 1566 1641 1843 1917 1564 1468 1559 1382 1296 1431 1821 1471 1500
147 608 531 2058 2235 2038 2195 2373 2111 2130 1882 2109 2373 2157 2427 2355 2294 2349 2241 2271 1476 1412 1114 1546 1936 1759 1894 1877 1750 1753 1462 1410 1680 1823 1749 452 657 1086 1219 1733 1213 1159 1105
381 700 623 2371 2675 2244 2350 2511 2534 2116 1777 1903 2008 2495 2404 2388 2354 2295 2181 1738 1438 1881 1786 1655 1803 1908 1649 1624 1881 1817 1810 1554 1506 1455 906 537 479 1524 1727 1601 989 885 1468
302 515 1296 2642 2590 2057 2398 2884 2780 2209 2136 2301 2174 2142 2064 1969 1391 1025 616 516 829 1307 1271 1586 1578 1522 1483 1398 1342 1228 1146 1322 1387 1261 643 444 330 874 1065 923 1652 1555 1270
290 347 1521 2213 2055 2143 2384 2638 2512 2510 2452 2561 2334 1425 1134 996 785 1462 1900 1661 1030 1325 1584 1547 1641 1522 1391 1351 1301 1307 1576 1671 1513 1140 974 969 304 592 1326 1416 1501 1245 486
208 94 536 2140 2017 2217 2320 2247 2183 2357 2436 2263 2277 1674 1158 997 1631 2401 1852 1342 1579 1706 1787 1666 1614 1390 1188 1110 1160 1275 1169 1226 1415 1089 1417 1403 1022 481 1067 1719 1844 975 548
267 94 367 1700 1848 2189 2350 2316 2373 2351 2202 2473 2593 1417 1256 1013 1105 1596 2099 1842 1522 1966 1604 1511 1496 1506 1646 1692 1787 1715 1423 1454 1159 1011 1289 1563 1319 506 873 910 917 1128 734
580 1098 668 751 1322 2063 2002 2217 2375 2245 2281 2360 2120 2095 1938 1691 1627 1442 1255 1286 1502 1561 1707 1863 1826 1824 1776 1637 1641 1756 1712 1580 1128 853 1167 1382 1738 1358 1295 1546 1564 1205 1060
844 978 1661 1094 938 1101 1499 2317 2074 1603 1440 1535 1799 2024 2064 1821 1765 1670 1879 1869 1748 1567 1499 1602 1803 1924 1991 1854 1703 1602 1544 1525 972 883 1204 1688 1952 1913 1855 1525 1998 1450 902
893 1539 1534 1273 1406 1534 1675 1677 1568 1239 1435 1684 1989 2048 1865 1715 1891 1937 1241 1673 1626 1540 1614 1723 1662 1930 2230 2205 2169 1863 1703 701 851 1076 874 1639 1314 1704 2035 1814 2213 2050 1249
808 1243 1377 1247 1169 1169 1335 1394 910 939 1325 1730 1893 2323 1781 2150 2113 1657 1830 2115 2097 1864 1920 1927 1777 1873 1695 1256 1111 1928 1179 993 1147 995 900 1633 1363 1679 1886 2252 2538 2600 1937
674 951 999 1130 1199 818 1429 1580 1042 853 1158 1619 1944 2009 1729 1894 2125 2008 1930 1940 1911 1723 1603 1953 1920 1774 1776 1733 1499 1409 1389 1449 1369 1079 1430 1446 1670 1847 2024 2657 2652 2613 2543
655 945 830 784 1262 938 1641 1694 1108 723 1076 1222 738 1193 945 1263 1780 2108 2122 2154 2109 1990 1854 1623 1537 1842 1711 1909 1721 1739 1574 1433 1074 1121 1442 1588 1543 1594 1715 2780 3090 2792 2669
1161 1124 1015 831 1179 1192 1677 1516 1480 1220 819 509 458 404 715 1060 1480 1974 2152 2165 2117 1855 1917 1997 1979 2035 2165 1881 1818 1800 1614 1560 1458 1318 1107 2523 1953 2162 1826 2249 2967 3053 2748
1519 1558 1480 1290 1301 1405 1210 1313 1470 1235 666 697 417 961 1826 2090 2168 2237 2440 2172 1891 1899 1803 2127 2716 2283 1861 1152 643 874 1592 1786 1495 1477 1410 1452 2517 2231 2184 1762 2811 3359 3285
1510 1590 1674 1760 1523 1610 1567 1206 884 541 772 1122 1329 2095 2543 2802 2669 3030 2510 2304 1664 2211 2861 1984 1816 1183 928 494 383 230 626 1051 1159 1511 1754 1636 1567 2374 2106 1689 2060 2629 3006
1506 1643 1634 1375 1443 1626 1603 1318 980 1131 1627 1430 1753 1962 2404 2968 3067 2996 2103 1551 1840 1911 1458 1361 1175 1103 774 712 652 363 175 142 218 698 952 1029 1166 1324 1855 1784 1700 1939 2276
1570 1666 1747 1694 1496 1641 1747 1566 1594 1864 2332 2170 2251 2190 2325 2571 2494 2997 1861 1589 2184 1112 1122 1480 1368 1339 1166 742 312 193 99 15 0 0 36 557 872 894 1000 875 1628 1740 1467
1586 1895 1905 1945 1978 1937 1817 2008 1706 1933 2340 2477 2415 2155 2395 2366 2433 2734 1897 2287 2457 1264 1261 2037 2408 1662 1196 573 322 67 2 0 20 34 96 34 12 404 416 955 1326 1368 2163
1467 1785 2139 2200 2405 2406 2042 1799 1887 2026 2139 2346 2264 2241 2689 2489 2485 2858 2348 1918 2388 2354 3132 2948 1998 806 535 590 155 0 0 0 43 6 0 0 0 7 206 114 581 693 638
1436 1871 2147 2305 2588 2686 2193 1995 1908 1876 1685 1733 1874 2328 2796 2667 2539 2748 3090 2783 2691 2812 2767 2660 1841 484 0 112 106 2 0 0 80 0 31 31 151 116 72 49 99 75 102
1411 1897 2251 2541 2460 2738 2370 2352 2537 2689 2734 2320 2280 2199 2216 2658 2792 3092 3469 3486 3498 3450 2087 1710 684 402 13 0 85 109 55 0 79 16 3 17 8 25 23 7 0 0 5
1472 1744 2292 2689 2806 2724 2920 3234 3366 2124 1979 2121 2374 2010 2142 2601 2781 3176 3659 3533 3347 1900 1523 978 267 310 273 0 34 45 154 307 193 169 7 2 0 1 0 0 0 0 0
1430 1638 2053 2701 3358 3480 3413 3450 2951 2938 2122 2531 2535 2705 3042 2960 3166 2852 2929 2466 1973 1689 1319 657 300 209 44 337 78 85 82 49 34 26 0 0 0 0 0 0 0 0 0
1304 1504 1817 3019 4157 3510 3387 3327 3475 3574 3222 2552 2671 2717 2600 2429 2532 2624 2312 2109 1763 1132 667 223 185 310 518 530 393 144 26 10 0 1 5 0 0 0 0 0 0 0 0